M.P.E.C. 2005-J13 Issued 2005 May 3, 21:33 UT The Minor Planet Electronic Circulars contain information on unusual minor planets and routine data on comets. They are published on behalf of Commission 20 of the International Astronomical Union by the Minor Planet Center, Smithsonian Astrophysical Observatory, Cambridge, MA 02138, U.S.A. Supported in part by the Brinson Foundation Prepared using the Tamkin Foundation Computer Network MPC@CFA.HARVARD.EDU URL http://cfa-www.harvard.edu/iau/mpc.html ISSN 1523-6714 TWELVE NEW SATELLITES OF SATURN Observations: SK04S070 C2004 12 12.37964 07 47 55.10 +20 53 03.9 EJ013568 SK04S070 C2004 12 12.41589 07 47 54.48 +20 53 06.1 EJ013568 SK04S070 C2004 12 14.59009 07 47 22.08 +20 54 49.4 25 R EJ013568 SK04S070 C2004 12 14.61432 07 47 21.72 +20 54 50.5 EJ013568 SK04S070 C2005 01 05.63598 07 40 46.34 +21 14 53.5 24.3 R EJ013568 SK04S070 C2005 01 05.65824 07 40 45.90 +21 14 54.7 24.5 R EJ013568 SK04S070 C2005 02 16.46263 07 28 02.87 +21 51 21.1 EJ013568 SK04S070 C2005 02 16.48645 07 28 02.56 +21 51 22.0 EJ013568 SK04S070 C2005 03 08.24733 07 24 56.75 +22 01 26.2 EJ013568 SK04S070 C2005 03 08.28392 07 24 56.55 +22 01 26.8 EJ013568 SK04S080 C2004 12 12.37964 07 47 57.07 +20 51 24.4 EJ013568 SK04S080 C2004 12 12.41589 07 47 56.56 +20 51 25.4 EJ013568 SK04S080 C2004 12 14.59009 07 47 23.29 +20 53 00.1 24.3 R EJ013568 SK04S080 C2004 12 14.61432 07 47 22.94 +20 53 01.3 24.3 R EJ013568 SK04S080 C2005 01 05.63598 07 40 38.50 +21 11 33.3 24.5 R EJ013568 SK04S080 C2005 01 05.65824 07 40 38.03 +21 11 34.7 EJ013568 SK04S080 C2005 02 07.42161 07 29 56.36 +21 39 20.7 EJ013568 SK04S080 C2005 02 07.43759 07 29 56.03 +21 39 21.4 EJ013568 SK04S080 C2005 02 08.33823 07 29 41.08 +21 39 59.6 EJ013568 SK04S080 C2005 02 08.37601 07 29 40.45 +21 40 01.3 EJ013568 SK04S080 C2005 03 05.36920 07 24 40.15 +21 53 25.3 EJ013568 SK04S080 C2005 03 05.40237 07 24 39.91 +21 53 26.0 EJ013568 SK04S080 C2005 03 11.23723 07 24 08.09 +21 55 13.1 24.9 R EJ013568 SK04S080 C2005 03 11.32977 07 24 07.67 +21 55 14.7 25.2 R EJ013568 SK04S090 C2004 12 12.38869 07 49 15.96 +21 11 46.0 EJ013568 SK04S090 C2004 12 12.42515 07 49 15.35 +21 11 47.2 EJ013568 SK04S090 C2004 12 14.59311 07 48 42.69 +21 13 15.3 24.6 R EJ013568 SK04S090 C2004 12 14.61734 07 48 42.26 +21 13 15.7 24.7 R EJ013568 SK04S090 C2005 01 05.39030 07 42 06.09 +21 30 12.7 24.7 R EJ013568 SK04S090 C2005 01 05.44775 07 42 04.91 +21 30 16.1 24.8 R EJ013568 SK04S090 C2005 02 07.44084 07 31 19.49 +21 55 11.3 EJ013568 SK04S090 C2005 02 07.46030 07 31 19.15 +21 55 11.8 EJ013568 SK04S090 C2005 02 10.44725 07 30 30.29 +21 56 57.4 EJ013568 SK04S090 C2005 02 10.47147 07 30 29.89 +21 56 58.2 EJ013568 SK04S090 C2005 03 09.31642 07 25 40.97 +22 06 53.1 EJ013568 SK04S090 C2005 03 09.34824 07 25 40.79 +22 06 53.3 EJ013568 SK04S100 C2004 12 12.38869 07 49 46.21 +21 11 38.1 EJ013568 SK04S100 C2004 12 12.42515 07 49 45.65 +21 11 39.7 EJ013568 SK04S100 C2004 12 14.59311 07 49 11.16 +21 13 19.0 25.0 R EJ013568 SK04S100 C2004 12 14.61734 07 49 10.76 +21 13 18.7 EJ013568 SK04S100 C2005 01 05.39030 07 42 17.42 +21 32 09.1 24.2 R EJ013568 SK04S100 C2005 01 05.44775 07 42 16.14 +21 32 12.2 24.4 R EJ013568 SK04S100 C2005 02 14.40819 07 29 09.14 +22 04 01.7 EJ013568 SK04S100 C2005 02 14.44591 07 29 08.54 +22 04 02.7 EJ013568 SK04S100 C2005 03 09.33487 07 24 58.62 +22 13 18.9 EJ013568 SK04S100 C2005 03 09.36697 07 24 58.42 +22 13 19.2 EJ013568 SK04S100 C2005 03 11.24888 07 24 48.12 +22 13 42.6 25.1 R EJ013568 SK04S100 C2005 03 11.34101 07 24 47.63 +22 13 43.6 24.9 R EJ013568 SK04S110 C2004 12 12.39170 07 48 49.41 +20 39 46.1 EJ013568 SK04S110 C2004 12 12.42815 07 48 48.90 +20 39 47.9 EJ013568 SK04S110 C2004 12 14.59612 07 48 16.86 +20 41 04.2 24.0 R EJ013568 SK04S110 C2004 12 14.62035 07 48 16.48 +20 41 05.1 24.5 R EJ013568 SK04S110 C2005 01 05.60252 07 41 46.88 +20 56 46.8 24.0 R EJ013568 SK04S110 C2005 01 05.62486 07 41 46.43 +20 56 47.7 23.9 R EJ013568 SK04S110 C2005 02 07.45339 07 31 28.34 +21 21 17.7 EJ013568 SK04S110 C2005 02 07.47289 07 31 28.02 +21 21 18.6 EJ013568 SK04S110 C2005 02 10.46344 07 30 41.32 +21 23 09.7 EJ013568 SK04S110 C2005 02 10.48801 07 30 40.94 +21 23 10.6 EJ013568 SK04S110 C2005 03 09.32935 07 26 09.21 +21 34 50.0 EJ013568 SK04S110 C2005 03 09.36122 07 26 09.06 +21 34 50.6 EJ013568 SK04S120 C2004 12 12.39170 07 49 15.66 +20 50 36.1 EJ013568 SK04S120 C2004 12 12.42815 07 49 15.12 +20 50 38.0 EJ013568 SK04S120 C2004 12 14.59612 07 48 43.69 +20 52 21.8 24.5 R EJ013568 SK04S120 C2004 12 14.62035 07 48 43.31 +20 52 23.0 25.0 R EJ013568 SK04S120 C2005 01 05.60252 07 42 16.41 +21 12 39.2 25.1 R EJ013568 SK04S120 C2005 01 05.62486 07 42 15.95 +21 12 40.4 24.8 R EJ013568 SK04S120 C2005 02 08.33118 07 31 41.31 +21 43 54.8 EJ013568 SK04S120 C2005 02 08.37024 07 31 40.68 +21 43 57.0 EJ013568 SK04S120 C2005 03 09.32299 07 26 35.07 +22 00 31.2 EJ013568 SK04S120 C2005 03 09.35479 07 26 34.92 +22 00 31.9 EJ013568 SK04S130 C2004 12 12.46294 07 55 28.49 +20 48 44.7 EJ013568 SK04S130 C2004 12 12.50818 07 55 27.83 +20 48 47.6 EJ013568 SK04S130 C2004 12 13.49872 07 55 12.99 +20 49 39.7 EJ013568 SK04S130 C2004 12 13.51926 07 55 12.65 +20 49 40.3 24.5 R EJ013568 SK04S130 C2004 12 14.60516 07 54 55.51 +20 50 40.7 24.5 R EJ013568 SK04S130 C2005 01 05.59417 07 48 06.30 +21 13 02.0 25.5 R EJ013568 SK04S130 C2005 01 05.61650 07 48 05.84 +21 13 03.4 EJ013568 SK04S130 C2005 02 16.47726 07 34 11.76 +21 53 21.7 EJ013568 SK04S130 C2005 02 16.49985 07 34 11.45 +21 53 22.8 EJ013568 SK04S130 C2005 03 09.26546 07 30 09.64 +22 04 43.3 EJ013568 SK04S130 C2005 03 09.29799 07 30 09.39 +22 04 44.2 EJ013568 SK04S140 C2004 12 12.46294 07 56 42.52 +20 52 44.0 EJ013568 SK04S140 C2004 12 12.50818 07 56 41.85 +20 52 46.0 EJ013568 SK04S140 C2004 12 14.60516 07 56 10.60 +20 54 20.6 24.4 R EJ013568 SK04S140 C2004 12 14.62939 07 56 10.22 +20 54 21.6 24.2 R EJ013568 SK04S140 C2005 01 05.59417 07 49 29.98 +21 13 33.6 24.9 R EJ013568 SK04S140 C2005 01 05.61650 07 49 29.52 +21 13 34.9 EJ013568 SK04S140 C2005 02 15.44987 07 36 14.09 +21 47 35.4 EJ013568 SK04S140 C2005 02 15.48074 07 36 13.60 +21 47 36.6 EJ013568 SK04S140 C2005 03 09.27822 07 32 07.36 +21 57 13.8 EJ013568 SK04S140 C2005 03 09.31054 07 32 07.13 +21 57 14.5 EJ013568 SK04S140 C2005 03 11.29905 07 31 54.63 +21 57 43.4 24.5 R EJ013568 SK04S140 C2005 03 11.35384 07 31 54.29 +21 57 44.2 EJ013568 SK04S150 C2004 12 12.46294 07 57 04.01 +20 42 49.0 EJ013568 SK04S150 C2004 12 12.50818 07 57 03.42 +20 42 52.0 EJ013568 SK04S150 C2004 12 13.38655 07 56 50.50 +20 43 40.1 24.5 R EJ013568 SK04S150 C2004 12 13.45539 07 56 49.47 +20 43 44.3 24.4 R EJ013568 SK04S150 C2004 12 14.60516 07 56 32.13 +20 44 46.2 24.3 R EJ013568 SK04S150 C2004 12 14.62939 07 56 31.78 +20 44 48.8 24.3 R EJ013568 SK04S150 C2005 01 05.48235 07 49 53.64 +21 07 37.1 24.0 R EJ013568 SK04S150 C2005 01 05.51875 07 49 52.90 +21 07 39.1 24.2 R EJ013568 SK04S150 C2005 01 05.59417 07 49 51.42 +21 07 43.9 24.4 R EJ013568 SK04S150 C2005 01 05.61650 07 49 50.94 +21 07 45.5 24.1 R EJ013568 SK04S150 C2005 02 15.49970 07 36 29.73 +21 49 11.0 EJ013568 SK04S150 C2005 02 15.53159 07 36 29.22 +21 49 12.4 EJ013568 SK04S150 C2005 03 09.25984 07 32 20.28 +22 02 22.9 EJ013568 SK04S150 C2005 03 09.29243 07 32 20.04 +22 02 23.7 EJ013568 SK04S160 C2004 12 13.38655 07 56 54.22 +20 53 55.1 EJ013568 SK04S160 C2004 12 13.45539 07 56 53.18 +20 53 58.7 EJ013568 SK04S160 C2004 12 14.49684 07 56 37.19 +20 54 54.2 EJ013568 SK04S160 C2004 12 14.51836 07 56 36.88 +20 54 55.5 25.1 R EJ013568 SK04S160 C2005 01 05.48235 07 49 48.70 +21 16 53.0 24.9 R EJ013568 SK04S160 C2005 01 05.51875 07 49 47.94 +21 16 55.2 25.1 R EJ013568 SK04S160 C2005 01 05.59417 07 49 46.37 +21 17 00.5 25.0 R EJ013568 SK04S160 C2005 01 05.61650 07 49 45.91 +21 17 01.8 EJ013568 SK04S160 C2005 02 08.32352 07 38 13.46 +21 50 17.2 EJ013568 SK04S160 C2005 02 08.36119 07 38 12.77 +21 50 19.4 EJ013568 SK04S160 C2005 03 05.34264 07 32 27.17 +22 05 55.8 EJ013568 SK04S160 C2005 03 05.37479 07 32 26.88 +22 05 56.5 EJ013568 SK04S170 C2004 12 13.48120 07 48 19.02 +20 57 21.4 25.3 R EJ013568 SK04S170 C2004 12 13.50183 07 48 18.68 +20 57 22.7 24.9 R EJ013568 SK04S170 C2004 12 14.59009 07 48 01.23 +20 58 17.1 25.3 R EJ013568 SK04S170 C2004 12 14.61432 07 48 00.88 +20 58 18.6 EJ013568 SK04S170 C2005 01 05.63598 07 41 04.86 +21 19 04.4 25.5 R EJ013568 SK04S170 C2005 01 05.65824 07 41 04.42 +21 19 06.2 EJ013568 SK04S170 C2005 02 07.44498 07 30 04.36 +21 49 41.3 EJ013568 SK04S170 C2005 02 07.46447 07 30 03.99 +21 49 42.3 EJ013568 SK04S170 C2005 02 10.45278 07 29 13.42 +21 52 00.4 EJ013568 SK04S170 C2005 02 10.47711 07 29 13.01 +21 52 01.6 EJ013568 SK04S170 C2005 03 05.35624 07 24 33.94 +22 05 23.4 EJ013568 SK04S170 C2005 03 05.38760 07 24 33.71 +22 05 23.9 EJ013568 SK04S180 C2004 12 13.57545 07 46 33.50 +20 19 38.7 EJ013568 SK04S180 C2004 12 13.63013 07 46 32.68 +20 19 40.7 EJ013568 SK04S180 C2004 12 14.56559 07 46 17.72 +20 20 18.5 23.1 R EJ013568 SK04S180 C2004 12 14.58074 07 46 17.50 +20 20 19.2 23.5 R EJ013568 SK04S180 C2005 01 05.63042 07 39 22.12 +20 37 41.8 24.4 R EJ013568 SK04S180 C2005 01 05.65269 07 39 21.58 +20 37 42.8 24.4 R EJ013568 SK04S180 C2005 02 07.41174 07 28 26.31 +21 04 50.4 EJ013568 SK04S180 C2005 02 07.42727 07 28 26.04 +21 04 51.0 EJ013568 SK04S180 C2005 02 08.35050 07 28 10.31 +21 05 30.6 EJ013568 SK04S180 C2005 02 08.38627 07 28 09.69 +21 05 32.0 EJ013568 SK04S180 C2005 03 05.35039 07 22 58.70 +21 19 27.5 EJ013568 SK04S180 C2005 03 05.38212 07 22 58.45 +21 19 28.3 EJ013568 Observer details: 568 Mauna Kea. Observers S. S. Sheppard, D. C. Jewitt. Measurer S. S. Sheppard. Subaru 8.3-m telescope + CCD, Keck 10-m telescope + CCD, Gemini North 8.1-m telescope + CCD. Orbital elements: S/2004 S 7 Epoch 2005 Jan. 30.0 TT = JDT 2453400.5 MPC M 292.19750 (2000.0) P Q n 0.32668209 Peri. 100.46873 -0.40265230 -0.91344535 a 0.1375467 Node 346.26441 -0.90657923 +0.38904890 e 0.5541269 Incl. 165.59600 -0.12643267 +0.11940918 P 3.02 H 15.2 P/d 1101.99 Residuals in seconds of arc K04CC 568 0.6+ 0.2- K0515 568 0.1- 0.2- K0538 568 0.0 0.0 K04CC 568 0.5- 0.3+ K0515 568 0.0 0.2- K0538 568 0.0 0.1- K04CE 568 0.2- 0.1+ K052G 568 0.1- 0.1+ K04CE 568 0.1+ 0.0 K052G 568 0.1+ 0.1+ S/2004 S 8 Epoch 2005 Jan. 30.0 TT = JDT 2453400.5 MPC M 276.50917 (2000.0) P Q n 0.26581167 Peri. 359.95915 +0.00763776 -0.97831238 a 0.1578160 Node 270.39765 -0.91739659 -0.08922324 e 0.1859169 Incl. 168.05345 -0.39790094 +0.18693341 P 3.71 H 15.3 P/d 1354.34 Residuals in seconds of arc K04CC 568 0.7- 0.4+ K0515 568 0.2- 0.1+ K0535 568 0.1- 0.0 K04CC 568 0.1- 0.2- K0527 568 0.2+ 0.0 K0535 568 0.1- 0.0 K04CE 568 0.2+ 0.1- K0527 568 0.6- 0.0 K053B 568 0.1+ 0.1+ K04CE 568 0.7+ 0.1+ K0528 568 0.0 0.3- K053B 568 0.1+ 0.3+ K0515 568 0.1+ 0.2- K0528 568 0.2+ 0.2- S/2004 S 9 Epoch 2005 Jan. 30.0 TT = JDT 2453400.5 MPC M 196.22788 (2000.0) P Q n 0.33361171 Peri. 336.16517 -0.96607317 +0.14512743 a 0.1356353 Node 145.59200 +0.25182339 +0.71295551 e 0.2094328 Incl. 157.78624 -0.05733766 +0.68602658 P 2.95 H 15.6 P/d 1079.10 Residuals in seconds of arc K04CC 568 0.4+ 0.2+ K0515 568 0.1- 0.3- K052A 568 0.2+ 0.0 K04CC 568 0.4- 0.1- K0515 568 0.1- 0.2+ K052A 568 0.1+ 0.0 K04CE 568 0.4+ 0.3+ K0527 568 0.1- 0.1- K0539 568 0.0 0.2+ K04CE 568 0.3- 0.2- K0527 568 0.1- 0.3- K0539 568 0.1- 0.1+ S/2004 S 10 Epoch 2005 Jan. 30.0 TT = JDT 2453400.5 MPC M 236.44912 (2000.0) P Q n 0.35090852 Peri. 281.08782 +0.08685068 -0.99419069 a 0.1311408 Node 196.47771 -0.80396553 -0.10763253 e 0.2371238 Incl. 167.04774 -0.58829958 +0.00031738 P 2.81 H 15.4 P/d 1025.91 Residuals in seconds of arc K04CC 568 0.4- 0.3+ K0515 568 0.3+ 0.3+ K0539 568 0.0 0.0 K04CC 568 0.1- 0.2+ K0515 568 0.4- 0.2+ K0539 568 0.1+ 0.1- K04CE 568 0.2+ 0.2+ K052E 568 0.1+ 0.2+ K053B 568 0.2- 0.0 K04CE 568 0.3+ 1.2- K052E 568 0.1+ 0.0 K053B 568 0.0 0.1- S/2004 S 11 Epoch 2005 Jan. 30.0 TT = JDT 2453400.5 MPC M 246.48791 (2000.0) P Q n 0.43895465 Peri. 9.70908 -0.93075591 +0.33411597 a 0.1129589 Node 193.15155 -0.36369339 -0.88784830 e 0.3333091 Incl. 40.75171 -0.03769015 +0.31637307 P 2.25 H 14.9 P/d 820.13 Residuals in seconds of arc K04CC 568 0.0 0.1- K0515 568 0.1+ 0.1+ K052A 568 0.0 0.1- K04CC 568 0.4+ 0.4+ K0515 568 0.0 0.0 K052A 568 0.0 0.1- K04CE 568 0.2- 0.2- K0527 568 0.1- 0.0 K0539 568 0.0 0.1- K04CE 568 0.2- 0.1- K0527 568 0.1- 0.2+ K0539 568 0.0 0.1+ S/2004 S 12 Epoch 2005 Jan. 30.0 TT = JDT 2453400.5 MPC M 286.16289 (2000.0) P Q n 0.34333422 Peri. 96.52812 -0.76994373 -0.60628056 a 0.1330625 Node 313.62102 -0.63775929 +0.74149773 e 0.3962529 Incl. 164.04241 +0.02120706 +0.28741086 P 2.87 H 15.7 P/d 1048.54 Residuals in seconds of arc K04CC 568 0.0 0.0 K0515 568 0.0 0.0 K0539 568 0.0 0.1- K04CC 568 0.2- 0.1+ K0515 568 0.2- 0.1- K0539 568 0.0 0.0 K04CE 568 0.2+ 0.1- K0528 568 0.0 0.1- K04CE 568 0.0 0.0 K0528 568 0.1+ 0.3+ S/2004 S 13 Epoch 2005 Jan. 30.0 TT = JDT 2453400.5 MPC M 33.25353 (2000.0) P Q n 0.39741761 Peri. 6.32189 -0.81596492 -0.55970551 a 0.1206986 Node 221.46403 -0.53950835 +0.64735527 e 0.2610261 Incl. 167.37943 -0.20768242 +0.51735954 P 2.48 H 15.6 P/d 905.85 Residuals in seconds of arc K04CC 568 0.8+ 0.4- K04CE 568 (4.8- 1.0+) K052G 568 0.3+ 0.3+ K04CC 568 1.2+ 0.1+ K0515 568 0.1+ 0.1+ K0539 568 0.0 0.3- K04CD 568 1.3+ 0.3- K0515 568 0.3+ 0.1+ K0539 568 0.0 0.1- K04CD 568 1.0+ 0.8- K052G 568 0.4- 0.1+ S/2004 S 14 Epoch 2005 Jan. 30.0 TT = JDT 2453400.5 MPC M 96.44331 (2000.0) P Q n 0.33330287 Peri. 25.04131 +0.47953143 -0.85917162 a 0.1357191 Node 322.95093 -0.84673770 -0.50644769 e 0.2913261 Incl. 162.76332 -0.23040153 +0.07304012 P 2.96 H 13.5 P/d 1080.10 Residuals in seconds of arc K04CC 568 0.0 0.1- K0515 568 0.2- 0.4+ K0539 568 0.0 0.1- K04CC 568 0.1+ 0.1- K0515 568 0.1- 0.5+ K0539 568 0.0 0.1+ K04CE 568 0.0 0.1- K052F 568 0.2+ 0.1- K053B 568 0.1- 0.1- K04CE 568 0.0 0.2- K052F 568 0.2+ 0.0 K053B 568 0.1- 0.0 S/2004 S 15 Epoch 2005 Jan. 30.0 TT = JDT 2453400.5 MPC M 252.37458 (2000.0) P Q n 0.35761874 Peri. 144.64072 +0.35731503 +0.90739659 a 0.1294951 Node 215.26243 +0.74417795 -0.13344275 e 0.1520172 Incl. 157.46438 +0.56438033 -0.39852786 P 2.76 H 15.1 P/d 1006.66 Residuals in seconds of arc K04CC 568 0.0 0.9- K04CE 568 0.2- 0.6+ K052F 568 0.0 0.0 K04CC 568 1.2+ 0.3- K0515 568 0.7- 0.4+ K052F 568 0.1- 0.1- K04CD 568 0.4- 0.4+ K0515 568 0.5- 0.0 K0539 568 0.0 0.0 K04CD 568 0.3- 0.7+ K0515 568 0.8+ 0.1- K0539 568 0.0 0.0 K04CE 568 0.6- 0.7- K0515 568 0.6+ 0.0 S/2004 S 16 Epoch 2005 Jan. 30.0 TT = JDT 2453400.5 MPC M 302.16299 (2000.0) P Q n 0.28360708 Peri. 133.48714 -0.24135077 +0.93798069 a 0.1511433 Node 239.04020 +0.78538600 +0.33943633 e 0.1311897 Incl. 163.12820 +0.57001635 -0.07053514 P 3.48 H 15.9 P/d 1269.36 Residuals in seconds of arc K04CD 568 0.7- 0.1- K0515 568 0.4- 0.2- K0528 568 0.0 0.2- K04CD 568 0.3- 0.2- K0515 568 0.2- 0.3- K0528 568 0.1+ 0.1+ K04CE 568 0.3+ 0.0 K0515 568 0.2+ 0.3+ K0535 568 0.1- 0.0 K04CE 568 0.8+ 0.2+ K0515 568 0.3+ 0.2+ K0535 568 0.0 0.0 S/2004 S 17 Epoch 2005 Jan. 30.0 TT = JDT 2453400.5 MPC M 165.42494 (2000.0) P Q n 0.36531431 Peri. 175.79027 -0.91274507 -0.40109068 a 0.1276701 Node 19.99448 -0.38113409 +0.90442446 e 0.2259100 Incl. 166.88154 -0.14708242 +0.14540521 P 2.70 H 16.0 P/d 985.45 Residuals in seconds of arc K04CD 568 0.1+ 0.2- K0515 568 0.2- 0.2- K052A 568 0.1+ 0.1- K04CD 568 0.0 0.1+ K0515 568 0.2+ 0.3+ K052A 568 0.1+ 0.0 K04CE 568 0.4- 0.1- K0527 568 0.0 0.0 K0535 568 0.1- 0.1+ K04CE 568 0.3+ 0.2+ K0527 568 0.3- 0.1+ K0535 568 0.1+ 0.1- S/2004 S 18 Epoch 2005 Jan. 30.0 TT = JDT 2453400.5 MPC M 144.21470 (2000.0) P Q n 0.34197078 Peri. 84.48030 -0.75840340 -0.41036881 a 0.1334159 Node 289.60396 -0.55433580 +0.81475697 e 0.7723547 Incl. 147.48367 +0.34283539 +0.40959555 P 2.88 H 14.7 P/d 1052.72 Residuals in seconds of arc K04CD 568 0.6- 0.1- K0515 568 0.6+ 0.4+ K0528 568 0.2+ 0.2- K04CD 568 0.4+ 0.2- K0515 568 0.5- 0.3+ K0528 568 0.2+ 0.3- K04CE 568 0.1- 0.0 K0527 568 0.3- 0.1- K0535 568 0.1+ 0.1+ K04CE 568 0.3+ 0.1+ K0527 568 0.2- 0.1- K0535 568 0.0 0.2+ Ephemerides: S/2004 S 7 Date TT R. A. (2000) Decl. Delta r_S dR.A. ("/m) dDecl.m1"/') 2005 04 30 07 31.37 +21 56.9 9.273 0.109 2007-/2.40- 296+/ 4.9+ 2005 05 10 07 34.82 +21 50.8 9.422 0.104 1756-/2.10- 313+/ 5.2+ 2005 05 20 07 38.84 +21 43.1 9.560 0.098 1495-/1.79- 326+/ 5.4+ 2005 05 30 07 43.33 +21 33.8 9.683 0.093 1226-/1.46- 334+/ 5.6+ 2005 06 09 07 48.23 +21 22.9 9.791 0.088 948-/1.13- 334+/ 5.6+ S/2004 S 8 Date TT R. A. (2000) Decl. Delta r_S dR.A. ("/m) dDecl. ("/') 2005 04 30 07 30.41 +21 48.1 9.257 0.148 2816-/3.37- 230-/ 3.8- 2005 05 10 07 33.78 +21 41.9 9.404 0.146 2634-/3.15- 221-/ 3.7- 2005 05 20 07 37.70 +21 34.1 9.538 0.145 2446-/2.92- 212-/ 3.5- 2005 05 30 07 42.11 +21 24.8 9.659 0.144 2252-/2.69- 204-/ 3.4- 2005 06 09 07 46.91 +21 14.0 9.762 0.142 2053-/2.45- 199-/ 3.3- S/2004 S 9 Date TT R. A. (2000) Decl. Delta r_S dR.A. ("/m) dDecl. ("/') 2005 04 30 07 31.87 +21 53.2 9.192 0.158 1592-/1.91- 76+/ 1.3+ 2005 05 10 07 35.25 +21 45.6 9.343 0.157 1403-/1.68- 3+/ 0.1+ 2005 05 20 07 39.18 +21 36.5 9.482 0.156 1211-/1.45- 70-/ 1.2- 2005 05 30 07 43.58 +21 25.8 9.608 0.155 1017-/1.21- 143-/ 2.4- 2005 06 09 07 48.38 +21 13.7 9.717 0.154 823-/0.98- 218-/ 3.6- S/2004 S 10 Date TT R. A. (2000) Decl. Delta r_S dR.A. ("/m) dDecl. ("/') 2005 04 30 07 30.26 +22 03.0 9.360 0.139 2934-/3.52- 662+/ 11.0+ 2005 05 10 07 33.47 +21 56.1 9.505 0.137 2888-/3.46- 630+/ 10.5+ 2005 05 20 07 37.23 +21 47.7 9.637 0.136 2834-/3.39- 600+/ 10.0+ 2005 05 30 07 41.48 +21 37.7 9.755 0.134 2771-/3.31- 571+/ 9.5+ 2005 06 09 07 46.14 +21 26.4 9.855 0.132 2698-/3.22- 541+/ 9.0+ S/2004 S 11 Date TT R. A. (2000) Decl. Delta r_S dR.A. ("/m) dDecl. ("/') 2005 04 30 07 32.50 +21 27.6 9.413 0.115 1067-/1.27- 1461-/ 24.3- 2005 05 10 07 35.86 +21 21.6 9.566 0.112 894-/1.07- 1440-/ 24.0- 2005 05 20 07 39.76 +21 14.1 9.708 0.109 728-/0.87- 1414-/ 23.6- 2005 05 30 07 44.12 +21 05.2 9.834 0.106 566-/0.67- 1383-/ 23.0- 2005 06 09 07 48.87 +20 54.9 9.943 0.103 408-/0.48- 1346-/ 22.4- S/2004 S 12 Date TT R. A. (2000) Decl. Delta r_S dR.A. ("/m) dDecl. ("/') 2005 04 30 07 33.20 +21 55.4 9.225 0.109 483-/0.58- 206+/ 3.4+ 2005 05 10 07 36.64 +21 49.2 9.381 0.106 237-/0.28- 216+/ 3.6+ 2005 05 20 07 40.63 +21 41.3 9.526 0.103 6+/0.01+ 221+/ 3.7+ 2005 05 30 07 45.09 +21 31.9 9.657 0.099 245+/0.29+ 221+/ 3.7+ 2005 06 09 07 49.93 +21 21.0 9.772 0.096 475+/0.57+ 216+/ 3.6+ S/2004 S 13 Date TT R. A. (2000) Decl. Delta r_S dR.A. ("/m) dDecl. ("/') 2005 04 30 07 34.09 +22 00.3 9.447 0.117 257+/0.31+ 498+/ 8.3+ 2005 05 10 07 36.99 +21 54.2 9.603 0.120 51+/0.06+ 520+/ 8.7+ 2005 05 20 07 40.44 +21 46.7 9.746 0.122 156-/0.19- 543+/ 9.0+ 2005 05 30 07 44.36 +21 37.7 9.875 0.124 361-/0.43- 567+/ 9.4+ 2005 06 09 07 48.69 +21 27.2 9.985 0.126 564-/0.67- 593+/ 9.9+ S/2004 S 14 Date TT R. A. (2000) Decl. Delta r_S dR.A. ("/m) dDecl. ("/') 2005 04 30 07 36.41 +21 48.0 9.463 0.165 2201+/2.63+ 235-/ 3.9- 2005 05 10 07 39.36 +21 41.2 9.622 0.166 2037+/2.44+ 260-/ 4.3- 2005 05 20 07 42.85 +21 32.9 9.770 0.167 1866+/2.23+ 283-/ 4.7- 2005 05 30 07 46.81 +21 23.2 9.902 0.168 1691+/2.02+ 304-/ 5.1- 2005 06 09 07 51.16 +21 12.0 10.017 0.169 1511+/1.80+ 321-/ 5.4- S/2004 S 15 Date TT R. A. (2000) Decl. Delta r_S dR.A. ("/m) dDecl. ("/') 2005 04 30 07 36.49 +22 00.0 9.404 0.127 2265+/2.71+ 479+/ 8.0+ 2005 05 10 07 39.42 +21 54.2 9.564 0.126 2080+/2.49+ 517+/ 8.6+ 2005 05 20 07 42.88 +21 46.9 9.712 0.125 1889+/2.26+ 553+/ 9.2+ 2005 05 30 07 46.82 +21 38.0 9.845 0.124 1693+/2.02+ 588+/ 9.8+ 2005 06 09 07 51.14 +21 27.8 9.960 0.123 1491+/1.78+ 623+/ 10.4+ S/2004 S 16 Date TT R. A. (2000) Decl. Delta r_S dR.A. ("/m) dDecl. ("/') 2005 04 30 07 35.88 +22 01.6 9.438 0.135 1754+/2.10+ 577+/ 9.6+ 2005 05 10 07 38.77 +21 55.3 9.597 0.135 1543+/1.85+ 582+/ 9.7+ 2005 05 20 07 42.21 +21 47.4 9.743 0.134 1329+/1.59+ 587+/ 9.8+ 2005 05 30 07 46.12 +21 38.1 9.874 0.134 1111+/1.33+ 594+/ 9.9+ 2005 06 09 07 50.42 +21 27.4 9.988 0.133 891+/1.06+ 603+/ 10.0+ S/2004 S 17 Date TT R. A. (2000) Decl. Delta r_S dR.A. ("/m) dDecl. ("/') 2005 04 30 07 29.77 +22 02.5 9.309 0.156 3342-/4.01- 632+/ 10.5+ 2005 05 10 07 33.05 +21 56.7 9.454 0.155 3238-/3.88- 664+/ 11.1+ 2005 05 20 07 36.88 +21 49.2 9.588 0.155 3128-/3.74- 696+/ 11.6+ 2005 05 30 07 41.19 +21 40.3 9.706 0.154 3011-/3.60- 727+/ 12.1+ 2005 06 09 07 45.91 +21 30.0 9.808 0.153 2887-/3.45- 756+/ 12.6+ S/2004 S 18 Date TT R. A. (2000) Decl. Delta r_S dR.A. ("/m) dDecl. ("/') 2005 04 30 07 28.09 +21 17.3 9.355 0.236 4770-/5.69- 2077-/ 34.6- 2005 05 10 07 31.30 +21 11.9 9.503 0.236 4716-/5.62- 2024-/ 33.7- 2005 05 20 07 35.07 +21 04.8 9.639 0.236 4667-/5.56- 1969-/ 32.8- 2005 05 30 07 39.29 +20 56.3 9.760 0.236 4622-/5.50- 1915-/ 31.9- 2005 06 09 07 43.92 +20 46.3 9.863 0.236 4580-/5.44- 1862-/ 31.0- Brian G. Marsden (C) Copyright 2005 MPC M.P.E.C. 2005-J13
